Weather in Mugur-Aksy

Russia / Tyva Republic     50°22′57″N   90°25′57″E
temp.,
°C
wind,
m/s
gust,
m/s
humid.,
%
clouds,
%
prec.,
mm/h
press.,
hPa
HPBL,
m
31 july, sat
sat3101:00+5n4594100 11.1 1014544
04:00+4n3495100 9.8 1015513
07:00+4n3495100 12.9 1016672
10:00+5n2389100 0.6 1017475
13:00+7n3383100 0.7 1016602
16:00+8n2372100 0.1 1015846
19:00+9nne3366100 0.3 1015975
22:00+6nnw228795 0.1 101745
1 august, sun
sun101:00+5n228692 0.1 101655
04:00+4nnw2288100 0.0 101520
07:00+6n22855 0.0 1015130
10:00+10n34565 0.0 10121257
13:00+13n44373 0.0 10101779
16:00+14n45301 0.0 10102010
19:00+12n35445 0.0 10101590
22:00+7nnw226683 0.0 101314
2 august, mon
mon201:00+6nw11847 0.2 101316
04:00+4w11824 0.0 101211
07:00+7nw12702 0.0 101274
10:00+11nnw125222 0.0 10111434
13:00+15w13365 0.0 10082164
16:00+16n233637 0.0 10072158
19:00+14nne22485 0.1 1009924
22:00+8ene11701 0.0 101110
3 august, tue
tue301:00+8s227230 0.0 101111
04:00+7ssw22685 0.0 101112
07:00+10sw22564 0.0 101158
10:00+15ssw23401 0.0 10091330
13:00+17ssw353387 0.0 10072537
16:00+18s4632100 0.0 10042612
19:00+16w2647100 0.2 10041670
22:00+8nnw349694 1.3 1011196
4 august, wed
wed401:00+7nnw2289100 1.4 101019
04:00+6nnw1189100 0.0 101017
07:00+8nnw128199 0.0 101085
10:00+11n125849 0.6 1008874
13:00+14ene1348100 1.6 10051620
16:00+10n2275100 3.2 1007456
19:00+9wnw2274100 6.5 1008571
22:00+7n2392100 0.7 1010127